Regional Weather Roundup
Issued by NWS Northern Indiana

Home | Current Version | Previous Version | Text Only | Print | Product List | Glossary On
Versions: 1 2 3 4 5 6 7 8 9 10 11 12 13 14 15 16 17 18 19 20 21 22 23 24 25 26 27 28 29 30 31 32 33 34 35 36 37 38 39 40 41 42 43 44 45 46 47 48 49 50
538
ASUS43 KIWX 142000
RWRIWX

KIWX WEATHER ROUNDUP
NATIONAL WEATHER SERVICE NORTHERN INDIANA
300 PM EST SUN FEB 14 2016

NOTE: "FAIR" INDICATES FEW OR NO CLOUDS BELOW 12,000 FEET WITH NO
SIGNIFICANT WEATHER AND/OR OBSTRUCTIONS TO VISIBILITY.

* THESE STATIONS ARE NOT UNDER NWS QUALITY CONTROL. THEY ALSO MAY NOT
  REPORT WEATHER SUCH AS PRECIPITATION OR FOG.

INZ001>027-142100-
NORTHERN INDIANA

CITY           SKY/WX    TMP DP  RH WIND       PRES   REMARKS
GARY*          LGT SNOW  18  12  79 SE15      30.18F VSB 1   WCI   3
VALPARAISO     SNOW      16  12  84 E15       30.18F WCI   1
SOUTH BEND     CLOUDY    16   4  59 SE14      30.25R WCI   2
GOSHEN         CLOUDY    18   5  57 SE12      30.23F WCI   5
ANGOLA*        SUNNY     16   7  67 SE13      30.23F WCI   2
FORT WAYNE     CLOUDY    18   5  57 SE14      30.26F WCI   4

$$
INZ028>050-142100-
CENTRAL INDIANA

CITY           SKY/WX    TMP DP  RH WIND       PRES   REMARKS
LAFAYETTE      SNOW      18  14  84 E10       30.16F VSB 1/2 WCI   6
KOKOMO*        CLOUDY    16  10  79 SE17      30.19F WCI   0
MUNCIE*        HVY SNOW  17  12  80 SE9       30.21F VSB 1/4 WCI   6
INDIANAPOLIS   SNOW      18  14  84 E14       30.13F VSB 1/4 WCI   4

$$
MIZ043>046-050>051-056>058-064>065-071>073-077>080-142100-
SOUTHWEST LOWER MICHIGAN

CITY           SKY/WX    TMP DP  RH WIND       PRES   REMARKS
BATTLE CREEK   CLOUDY    17   4  56 S9        30.25F WCI   6
BENTON HARBOR  CLOUDY    18   4  54 SE13      30.24F WCI   5
COLDWATER*     CLOUDY    17   4  57 SE8       30.25S WCI   7
HILLSDALE*     CLOUDY    16   4  58 SE14      30.24S WCI   2
HOLLAND        CLOUDY    17   3  54 E12       30.25F WCI   4
GRAND RAPIDS   CLOUDY    20   4  50 SE13      30.26F WCI   7
KALAMAZOO      CLOUDY    17   3  54 SE10      30.25F WCI   5
STURGIS*       CLOUDY    17   6  62 SE15      30.22F WCI   2
THREE RIVERS*  FAIR      17   7  63 SE12      30.24F WCI   5

$$
OHZ001>008-015>018-024>025-142100-
NORTHWEST OHIO

CITY           SKY/WX    TMP DP  RH WIND       PRES   REMARKS
DEFIANCE       CLOUDY    20   4  50 SE12G17   30.28F WCI   8
FINDLAY        CLOUDY    20   6  55 SE12      30.27F WCI   8
TOLEDO EXPRESS CLOUDY    18   5  57 SE8G17    30.31F WCI   8
TOLEDO METCALF CLOUDY    20   4  50 SE9       30.34F WCI   9
LIMA           CLOUDY    18   6  59 SE12      30.25F WCI   5

$$
AND FOR LAKE MICHIGAN COASTAL AND OPEN LAKE BUOY OBSERVATIONS

STATION/POSITION TEMP    WIND        PRES    VSBY  WAVE
                 AIR SEA DIR/SP/G                  HT/PER
                 (F)     (DEG/KT/KT) (MB)    (MI)  (FT/S)
CALUMET HARBOR    15     130/  8/ 12 1022.2F
MICHIGAN CITY     15     120/ 13/ 17   N/A
BURNS HARBOR      15     120/  9/ 17 1023.4F
SAINT JOSEPH      17     100/  2/ 10 1024.7F

$$
&&




USA.gov is the U.S. government's official web portal to all federal, state and local government web resources and services.